Theta_e
353 354 355 355 356 357 357 357 357 357 357 359 357 357 357 353 352 350 349 348 348 349 351 353 355 355 351 353 353 352 353 354 355 350 353 353 352 351 349 350 348 346 346
350 352 348 356 357 356 357 357 357 357 358 359 359 355 351 347 345 344 348 348 348 349 350 351 351 351 354 351 352 355 353 352 352 354 352 352 351 350 349 348 346 346 347
357 356 356 356 358 359 358 357 357 357 358 359 354 350 347 343 345 345 347 348 349 349 348 350 350 351 350 347 347 352 351 352 352 351 351 349 349 349 350 349 349 348 340
356 357 359 359 358 358 358 357 357 357 359 355 352 349 346 347 342 343 345 348 349 344 342 341 341 347 349 347 347 348 349 350 350 350 349 346 343 341 342 345 344 342 340
352 353 354 356 359 360 358 356 356 357 356 355 353 353 349 342 344 345 342 347 344 342 342 340 338 339 339 338 340 340 347 347 349 347 346 342 339 338 336 335 335 335 336
350 352 352 352 354 355 356 353 352 354 355 354 352 350 346 344 341 341 344 346 345 345 344 341 338 338 340 342 343 345 344 342 341 339 336 335 333 328 330 329 328 327 329
344 346 350 351 351 353 354 353 351 352 352 351 349 346 343 344 341 341 341 344 344 344 342 341 339 337 336 336 336 337 336 335 334 332 331 328 327 327 324 326 324 327 327
339 342 345 349 350 350 349 353 352 351 349 348 346 344 344 342 339 338 337 342 342 342 340 339 338 338 337 337 336 335 333 331 330 330 331 330 329 328 328 327 329 329 329
333 335 339 344 348 349 346 346 348 346 345 345 343 343 343 338 338 337 337 340 338 336 333 333 333 330 332 333 336 333 331 325 320 319 318 318 320 322 325 329 329 329 329
333 333 334 339 346 346 347 342 342 343 345 344 343 341 340 334 334 335 337 337 333 331 327 324 324 324 321 323 329 329 328 325 324 326 324 323 323 319 318 323 323 324 324
330 330 331 333 341 344 344 343 340 339 341 340 340 336 333 330 327 330 331 332 331 329 327 325 322 314 313 313 320 323 324 323 324 324 324 323 323 322 322 321 322 320 321
329 329 328 331 334 341 342 342 340 339 340 334 333 330 331 328 326 326 328 329 327 324 323 323 319 316 317 321 323 322 323 324 323 323 322 322 321 320 319 319 320 320 319
328 327 327 328 332 338 341 339 339 338 331 328 328 327 326 325 324 324 324 320 320 322 323 321 319 319 317 315 313 316 318 320 319 319 319 318 318 317 317 317 317 317 317
327 327 326 329 330 335 339 338 337 331 326 325 325 325 324 322 319 315 315 317 320 320 319 319 319 320 318 317 318 317 317 315 315 317 317 317 317 316 316 316 316 315 315
320 320 320 321 321 322 321 324 327 328 325 324 325 324 325 324 321 318 318 319 320 320 320 319 319 319 319 318 318 318 317 316 317 317 317 317 316 316 316 315 315 314 314
318 318 322 323 324 324 324 324 326 326 325 326 324 325 326 323 317 317 318 318 318 318 320 320 320 318 319 318 318 317 315 315 317 317 317 317 316 316 315 315 314 314 314
321 320 318 318 322 322 323 323 324 322 325 323 322 323 324 315 313 314 315 315 315 315 319 319 319 318 318 318 318 317 314 315 316 315 315 315 315 315 314 314 314 313 313
319 318 318 318 319 320 320 320 320 321 319 317 315 315 313 312 313 314 314 316 316 316 319 320 319 319 318 318 318 317 314 314 315 315 314 314 315 315 314 314 313 313 313
321 321 320 320 319 319 318 319 319 316 315 315 314 314 313 314 314 314 315 319 320 319 319 319 319 319 319 318 318 316 314 313 313 313 313 313 313 314 313 313 312 310 309
321 320 320 320 320 318 319 318 319 319 319 318 317 317 315 314 316 317 317 319 319 319 319 319 319 319 318 318 318 315 313 313 313 313 313 313 312 313 313 312 311 311 311
322 322 320 320 319 319 319 319 319 319 319 319 319 319 319 318 318 319 319 319 319 319 319 319 318 318 319 318 317 315 313 312 312 311 310 310 311 311 311 310 310 309 309
323 323 322 321 320 320 321 320 320 319 319 319 319 319 317 317 320 319 319 319 319 319 318 319 319 318 318 317 316 315 314 314 313 312 311 310 311 312 312 312 312 312 312
321 321 321 321 321 319 319 319 320 321 321 321 321 320 319 318 319 319 318 319 319 318 318 318 318 318 318 317 316 315 315 314 314 314 313 312 313 313 313 313 312 313 312
320 320 320 319 319 318 318 319 319 319 319 318 318 318 318 318 318 318 318 318 318 318 318 318 318 318 318 318 317 316 315 314 313 313 313 314 313 311 312 312 312 312 312
319 319 319 319 319 319 318 319 319 318 318 319 319 319 319 319 319 319 319 319 319 319 319 319 318 318 318 318 319 318 317 314 312 311 311 312 311 311 312 312 313 313 312
319 319 319 319 319 319 319 319 319 319 319 319 319 319 319 319 319 319 319 320 319 319 319 319 319 320 319 317 316 316 315 313 312 312 310 310 311 312 312 313 313 312 312
Wind_Speed
16 18 14 24 25 24 24 22 21 19 18 18 20 19 18 16 11 6 4 13 19 19 18 22 26 24 24 22 18 16 16 15 12 14 3 3 5 6 7 10 9 9 10
13 14 7 20 24 19 19 19 19 21 21 22 23 22 20 19 14 13 5 4 10 16 16 19 24 24 21 22 16 13 14 12 11 11 7 5 3 4 5 5 6 8 8
5 6 4 13 19 13 15 17 18 20 22 24 25 24 22 18 8 4 4 7 7 9 11 15 21 22 21 20 18 14 11 10 9 10 7 5 2 4 4 4 6 6 5
11 10 9 11 13 10 12 14 16 18 22 24 24 22 24 14 9 5 4 1 5 2 1 6 11 7 13 9 11 8 6 7 7 6 1 5 1 1 1 4 5 4 5
9 10 11 11 9 9 11 12 15 19 22 23 22 18 11 11 9 9 5 7 7 5 1 5 5 3 2 4 4 4 9 8 3 1 1 4 2 1 3 3 4 5 11
11 11 11 11 9 7 8 12 15 19 21 18 17 15 11 10 14 13 11 11 7 3 3 3 1 4 5 6 9 13 11 8 5 4 4 8 5 2 2 1 6 3 3
18 17 15 12 12 10 10 14 16 17 16 15 13 11 11 9 12 12 12 6 5 8 6 5 4 4 6 8 9 9 7 7 7 6 7 8 8 9 8 8 7 5 5
20 20 18 16 16 13 13 17 17 16 15 13 13 11 10 9 10 11 10 8 7 8 7 5 4 5 5 6 7 7 6 6 6 7 8 8 4 4 4 4 3 2 6
23 22 21 19 18 17 15 16 16 14 14 14 12 13 12 10 14 14 12 9 11 12 9 8 6 6 9 8 5 5 4 4 3 3 4 3 4 5 3 1 4 4 3
24 25 25 24 22 22 20 19 20 14 13 13 13 13 14 12 15 17 15 14 15 15 10 9 8 5 4 5 2 4 4 2 1 3 6 8 8 7 7 7 4 3 5
28 27 27 27 26 25 23 20 18 17 14 16 16 15 16 17 20 21 15 16 15 13 9 7 6 3 2 3 4 1 3 5 7 6 5 6 3 3 3 4 4 4 6
31 28 29 29 29 23 24 21 22 20 21 22 23 20 17 19 23 21 17 15 15 13 8 6 6 9 9 12 13 15 11 4 3 2 1 1 2 3 4 5 4 5 5
28 25 23 27 27 24 20 18 21 22 23 21 21 23 21 20 21 21 20 18 16 13 10 12 17 19 17 14 11 8 2 1 2 2 1 1 3 4 5 4 6 5 6
21 15 16 15 11 9 12 16 19 21 20 19 18 17 26 16 21 21 19 17 18 22 24 18 13 9 9 8 6 3 2 3 3 3 3 2 3 4 5 5 7 8 9
20 19 19 22 18 27 31 19 11 9 29 29 26 24 21 18 15 19 17 15 16 17 15 13 11 8 7 6 3 2 1 1 1 2 3 3 3 3 4 5 7 8 7
23 20 17 20 23 24 23 31 29 25 24 24 26 31 19 22 16 18 17 16 16 17 10 9 8 7 4 3 1 1 1 1 2 3 3 3 3 4 6 5 6 7 8
19 20 22 22 22 22 22 23 25 32 23 23 15 23 21 22 19 17 17 16 13 8 5 6 6 4 3 2 1 2 3 1 2 3 3 3 4 4 4 6 6 7 7
18 22 22 21 24 21 20 19 24 23 25 22 17 16 13 16 15 14 12 9 7 5 5 5 6 5 4 3 3 4 3 3 3 3 4 4 4 5 5 5 5 5 6
12 11 14 19 17 14 15 16 21 24 17 10 12 10 7 8 8 8 7 2 3 3 4 7 6 5 4 4 3 4 4 5 4 5 5 5 5 5 6 7 7 5 6
9 6 7 11 13 14 12 10 6 11 12 11 10 10 12 10 7 6 5 5 7 7 5 7 8 8 6 5 4 5 5 5 5 6 6 6 7 8 8 8 8 9 9
4 5 5 6 8 7 7 6 4 3 3 4 4 4 7 8 9 10 8 8 8 8 6 8 9 9 9 8 7 6 6 7 6 6 7 8 9 10 9 9 9 10 11
4 3 2 1 1 1 3 5 8 9 9 9 8 8 9 8 10 4 6 7 6 6 9 7 9 10 9 8 6 7 7 7 7 9 10 10 11 11 10 11 13 13 13
3 3 3 2 1 1 2 3 3 3 3 4 5 5 5 7 5 5 5 7 6 6 6 6 7 9 8 8 8 9 11 10 9 10 12 13 14 14 14 15 16 16 17
3 3 4 3 1 1 2 3 3 2 3 4 4 4 4 5 6 4 5 5 6 7 7 8 8 8 7 9 11 12 14 16 15 16 16 18 17 18 20 20 19 22 23
4 4 3 3 2 0 2 2 1 2 4 4 4 4 5 6 7 7 8 8 8 9 9 9 9 9 9 10 12 13 15 20 19 19 18 19 21 23 23 25 26 28 27
4 3 3 3 3 3 3 3 4 5 5 6 6 7 7 7 8 9 8 10 9 9 8 9 9 9 8 10 9 12 13 15 14 14 16 18 21 23 25 26 28 28 27
Wind_Direction
217 208 196 251 236 230 236 236 236 231 223 220 207 198 193 185 175 174 301 310 305 295 288 280 273 262 242 238 233 230 240 241 243 261 236 115 206 215 215 210 218 212 232
272 246 152 248 251 235 234 229 225 228 219 210 201 192 189 200 212 232 241 275 298 297 297 283 271 262 247 229 216 215 225 232 243 250 228 190 194 141 167 185 208 244 254
317 288 277 257 257 248 244 237 225 222 217 207 196 197 204 211 223 266 343 316 299 290 303 297 284 258 240 213 212 203 216 225 219 240 203 191 160 169 207 211 236 224 216
353 350 320 284 266 259 245 239 233 222 212 209 214 209 214 219 242 275 261 311 277 211 73 1 1 333 192 186 184 192 179 200 211 234 170 112 78 182 279 180 200 216 266
335 327 320 313 305 271 246 225 220 217 220 223 228 230 232 234 246 221 212 189 179 189 25 299 337 344 290 169 204 217 208 192 208 303 43 94 98 117 93 34 335 337 246
321 318 321 321 310 286 246 216 219 222 224 224 228 234 226 215 214 198 170 195 168 125 163 82 161 183 159 147 177 189 171 163 131 88 97 110 100 108 117 137 287 326 310
325 319 314 305 293 277 245 223 222 224 224 217 213 208 202 192 195 184 187 200 148 117 139 135 142 136 136 138 140 143 151 153 147 147 138 142 147 188 198 191 193 221 238
309 302 298 293 279 267 241 227 217 207 201 204 200 199 192 179 191 196 198 171 132 125 127 136 136 146 141 142 126 121 127 125 134 148 131 133 148 176 197 242 241 278 321
298 293 286 278 267 258 232 216 211 199 201 200 197 188 190 182 189 191 174 159 138 121 122 123 141 135 150 144 137 139 154 147 142 145 130 124 124 123 95 13 35 333 322
293 288 285 276 253 246 240 212 205 209 211 207 183 189 180 171 169 166 166 158 140 129 132 127 132 122 128 141 131 189 206 163 201 144 93 88 92 76 71 77 63 358 330
295 289 282 275 264 237 235 226 202 206 202 189 184 171 164 160 160 160 165 152 140 139 142 149 125 135 163 152 132 214 172 143 134 130 132 118 111 63 28 28 24 347 322
295 285 277 272 264 239 224 215 205 215 190 169 165 154 154 153 154 153 148 136 129 126 127 123 114 122 118 110 103 105 117 139 133 129 159 104 344 344 332 328 322 325 310
298 277 267 273 261 246 212 204 199 190 165 162 160 152 145 145 141 144 135 132 123 116 119 126 124 122 118 109 104 98 44 9 338 291 320 358 351 337 319 319 319 316 296
339 321 282 288 295 238 206 201 185 167 154 142 144 136 121 133 126 130 119 122 124 117 115 118 132 132 121 125 131 105 66 12 348 360 345 354 333 344 337 348 331 337 328
50 64 64 66 75 77 67 58 53 182 155 136 124 126 126 134 151 124 135 135 141 136 138 143 157 164 153 146 130 78 55 358 341 345 322 336 337 335 351 342 335 337 336
51 41 52 72 80 88 85 77 68 101 116 115 140 139 141 136 132 131 134 136 135 146 165 165 173 167 168 145 113 8 39 8 2 326 305 305 317 344 8 343 355 347 341
64 67 58 53 63 61 71 76 78 73 83 75 89 105 121 127 138 134 129 133 142 147 179 174 167 170 166 209 305 352 347 5 299 304 316 326 330 347 329 344 349 342 348
79 79 75 61 66 63 70 69 73 69 66 55 57 80 115 127 144 140 127 124 143 184 246 221 199 202 214 245 308 335 313 261 258 287 311 309 308 308 309 316 308 322 319
75 79 97 100 94 87 69 76 91 92 103 117 127 123 141 155 152 138 150 239 279 263 225 215 229 221 237 248 287 306 293 280 287 293 285 287 288 291 292 291 297 268 287
88 85 89 96 96 95 101 106 93 128 141 157 163 175 187 192 206 206 216 234 251 259 262 238 225 222 242 244 276 283 264 260 256 261 271 283 281 276 275 279 288 300 297
94 90 66 61 81 90 124 130 123 128 174 213 226 204 202 215 235 239 230 222 237 253 252 252 244 221 231 236 257 268 260 263 257 263 260 259 262 267 269 280 290 290 289
225 247 256 267 171 258 261 230 215 209 201 212 209 212 223 234 269 261 252 248 242 247 256 241 252 252 247 256 261 263 266 266 262 253 252 255 255 260 268 279 281 282 286
161 157 188 193 236 266 262 271 261 250 214 196 210 218 215 238 242 247 249 243 231 249 234 238 249 258 262 252 247 252 259 268 267 263 265 262 261 266 268 273 277 278 280
136 145 160 152 137 62 104 139 160 198 196 201 179 195 204 210 225 217 246 233 235 240 237 244 245 249 253 255 259 256 254 251 251 268 268 267 266 272 270 269 270 272 274
139 138 174 198 196 216 153 188 165 163 199 221 224 233 236 225 230 223 228 228 235 242 244 252 260 267 266 265 267 273 272 271 268 260 262 261 262 265 265 267 271 276 277
163 199 211 210 203 215 225 232 235 235 240 238 240 245 252 252 247 253 247 242 254 255 260 277 269 265 270 280 276 262 267 274 277 279 270 261 263 265 264 267 271 273 273